XAX7953 EINN-EIDW

Flight info

Callsign XAX7953
Flight time 0h 48m
Altitude 17000
Route DERAG DCT DIGAN DCT PELIG DCT SUBOF DCT EBEZA
Aircraft A333/H-SDE3GHIJ2J3J5M1RVWXY/LB2D1

Departure

Time 2026-04-30 12:51
Airport Shannon Airport (EINN)

Arrival

Time 2026-04-30 13:40
Airport Dublin Airport (EIDW)
Time Latitude Longitude Altitude Speed Heading
2026-04-30 12:04 52.69159 -8.91054 26 ft 0 kts 159°
2026-04-30 12:30 52.69174 -8.91064 26 ft 2 kts 159°
2026-04-30 12:30 52.69185 -8.91071 26 ft 0 kts 159°
2026-04-30 12:30 52.69187 -8.91071 26 ft 0 kts 145°
2026-04-30 12:30 52.69190 -8.91071 26 ft 0 kts 123°
2026-04-30 12:31 52.69193 -8.91074 26 ft 0 kts 97°
2026-04-30 12:31 52.69195 -8.91079 26 ft 0 kts 71°
2026-04-30 12:31 52.69192 -8.91095 26 ft 2 kts 71°
2026-04-30 12:31 52.69185 -8.91124 26 ft 3 kts 70°
2026-04-30 12:32 52.69178 -8.91155 26 ft 3 kts 70°
2026-04-30 12:32 52.69171 -8.91186 26 ft 3 kts 70°
2026-04-30 12:32 52.69165 -8.91217 26 ft 3 kts 70°
2026-04-30 12:32 52.69158 -8.91247 26 ft 3 kts 71°
2026-04-30 12:33 52.69151 -8.91278 32 ft 3 kts 69°
2026-04-30 12:33 52.69144 -8.91308 26 ft 3 kts 71°
2026-04-30 12:33 52.69140 -8.91339 26 ft 2 kts 89°
2026-04-30 12:33 52.69141 -8.91366 26 ft 2 kts 101°
2026-04-30 12:34 52.69145 -8.91393 26 ft 2 kts 114°
2026-04-30 12:34 52.69153 -8.91416 26 ft 2 kts 130°
2026-04-30 12:34 52.69165 -8.91437 26 ft 2 kts 133°
2026-04-30 12:34 52.69176 -8.91457 26 ft 2 kts 133°
2026-04-30 12:35 52.69187 -8.91477 26 ft 2 kts 134°
2026-04-30 12:35 52.69199 -8.91497 26 ft 2 kts 134°
2026-04-30 12:35 52.69210 -8.91516 26 ft 2 kts 134°
2026-04-30 12:35 52.69222 -8.91536 26 ft 2 kts 134°
2026-04-30 12:36 52.69234 -8.91555 26 ft 2 kts 134°
2026-04-30 12:36 52.69245 -8.91575 26 ft 2 kts 134°
2026-04-30 12:36 52.69257 -8.91595 32 ft 2 kts 135°
2026-04-30 12:36 52.69264 -8.91608 32 ft 0 kts 129°
2026-04-30 12:37 52.69264 -8.91607 32 ft 1 kts 129°
2026-04-30 12:37 52.69255 -8.91588 32 ft 3 kts 126°
2026-04-30 12:37 52.69253 -8.91560 26 ft 3 kts 89°
2026-04-30 12:38 52.69259 -8.91541 26 ft 2 kts 57°
2026-04-30 12:38 52.69272 -8.91525 31 ft 4 kts 38°
2026-04-30 12:38 52.69303 -8.91498 26 ft 7 kts 23°
2026-04-30 12:38 52.69356 -8.91471 26 ft 9 kts 16°
2026-04-30 12:39 52.69427 -8.91433 32 ft 12 kts 18°
2026-04-30 12:39 52.69517 -8.91384 32 ft 15 kts 19°
2026-04-30 12:39 52.69614 -8.91330 26 ft 11 kts 18°
2026-04-30 12:39 52.69680 -8.91328 31 ft 10 kts 335°
2026-04-30 12:40 52.69721 -8.91430 30 ft 12 kts 301°
2026-04-30 12:40 52.69773 -8.91558 32 ft 15 kts 305°
2026-04-30 12:40 52.69831 -8.91693 28 ft 11 kts 305°
2026-04-30 12:40 52.69828 -8.91781 31 ft 9 kts 237°
2026-04-30 12:41 52.69777 -8.91847 26 ft 10 kts 214°
2026-04-30 12:41 52.69710 -8.91923 26 ft 13 kts 214°
2026-04-30 12:41 52.69631 -8.92015 26 ft 15 kts 215°
2026-04-30 12:41 52.69541 -8.92119 26 ft 15 kts 215°
2026-04-30 12:42 52.69509 -8.92207 30 ft 9 kts 272°
2026-04-30 12:42 52.69533 -8.92315 26 ft 11 kts 302°
2026-04-30 12:42 52.69589 -8.92422 32 ft 14 kts 314°
2026-04-30 12:42 52.69660 -8.92538 26 ft 15 kts 315°
2026-04-30 12:43 52.69742 -8.92671 27 ft 17 kts 315°
2026-04-30 12:43 52.69832 -8.92818 28 ft 19 kts 315°
2026-04-30 12:43 52.69873 -8.92885 31 ft 0 kts 315°
2026-04-30 12:44 52.69883 -8.92900 32 ft 3 kts 315°
2026-04-30 12:44 52.69900 -8.92928 36 ft 3 kts 315°
2026-04-30 12:45 52.69908 -8.92941 38 ft 2 kts 315°
2026-04-30 12:45 52.69923 -8.92967 41 ft 2 kts 310°
2026-04-30 12:45 52.69925 -8.92972 42 ft 2 kts 307°
2026-04-30 12:45 52.69934 -8.93041 44 ft 7 kts 265°
2026-04-30 12:46 52.69908 -8.93110 44 ft 8 kts 231°
2026-04-30 12:46 52.69855 -8.93221 44 ft 20 kts 231°
2026-04-30 12:46 52.69744 -8.93455 43 ft 29 kts 233°
2026-04-30 12:46 52.69619 -8.93721 45 ft 29 kts 232°
2026-04-30 12:47 52.69496 -8.93982 50 ft 28 kts 232°
2026-04-30 12:47 52.69377 -8.94195 51 ft 21 kts 207°
2026-04-30 12:47 52.69302 -8.94270 48 ft 1 kts 242°
2026-04-30 12:47 52.69304 -8.94293 49 ft 4 kts 282°
2026-04-30 12:48 52.69315 -8.94308 46 ft 2 kts 325°
2026-04-30 12:48 52.69346 -8.94294 47 ft 8 kts 32°
2026-04-30 12:48 52.69370 -8.94247 48 ft 2 kts 51°
2026-04-30 12:48 52.69371 -8.94245 48 ft 0 kts 51°
2026-04-30 12:50 52.69372 -8.94244 48 ft 1 kts 51°
2026-04-30 12:50 52.69433 -8.94115 48 ft 39 kts 52°
2026-04-30 12:50 52.69764 -8.93414 44 ft 113 kts 51°
2026-04-30 12:51 52.70368 -8.92131 50 ft 169 kts 67°
2026-04-30 12:51 52.70939 -8.90442 978 ft 163 kts 62°
2026-04-30 12:51 52.71618 -8.88998 2126 ft 159 kts 58°
2026-04-30 12:51 52.72384 -8.87502 2673 ft 187 kts 57°
2026-04-30 12:52 52.73291 -8.85664 3066 ft 225 kts 57°
2026-04-30 12:52 52.74330 -8.83510 3463 ft 252 kts 57°
2026-04-30 12:52 52.75439 -8.81196 4051 ft 261 kts 57°
2026-04-30 12:52 52.76579 -8.78818 4794 ft 265 kts 57°
2026-04-30 12:53 52.77726 -8.76405 5657 ft 270 kts 57°
2026-04-30 12:53 52.78890 -8.73938 6556 ft 273 kts 58°
2026-04-30 12:53 52.80050 -8.71465 7352 ft 278 kts 58°
2026-04-30 12:53 52.81236 -8.68922 8168 ft 280 kts 58°
2026-04-30 12:54 52.82429 -8.66356 8978 ft 283 kts 58°
2026-04-30 12:54 52.83637 -8.63756 9801 ft 287 kts 58°
2026-04-30 12:54 52.84873 -8.61088 10406 ft 299 kts 58°
2026-04-30 12:54 52.86018 -8.58171 10638 ft 313 kts 70°
2026-04-30 12:55 52.86909 -8.54807 10965 ft 325 kts 74°
2026-04-30 12:55 52.87695 -8.51269 11535 ft 328 kts 76°
2026-04-30 12:55 52.88411 -8.47670 12227 ft 329 kts 78°
2026-04-30 12:55 52.89095 -8.44040 12912 ft 332 kts 78°
2026-04-30 12:56 52.89775 -8.40380 13595 ft 334 kts 78°
2026-04-30 12:56 52.90465 -8.36683 14224 ft 337 kts 78°
2026-04-30 12:56 52.91167 -8.32957 14830 ft 340 kts 78°
2026-04-30 12:56 52.91879 -8.29205 15442 ft 343 kts 78°
2026-04-30 12:57 52.92604 -8.25411 16018 ft 346 kts 78°
2026-04-30 12:57 52.93352 -8.21602 16632 ft 350 kts 75°
2026-04-30 12:57 52.94326 -8.17863 17246 ft 355 kts 71°
2026-04-30 12:57 52.95393 -8.14135 17840 ft 360 kts 70°
2026-04-30 12:58 52.96504 -8.10452 18405 ft 362 kts 69°
2026-04-30 12:58 52.97660 -8.06716 18905 ft 365 kts 69°
2026-04-30 12:58 52.98917 -8.03003 19327 ft 374 kts 62°
2026-04-30 12:58 53.00633 -7.99670 19754 ft 388 kts 47°
2026-04-30 12:59 53.02865 -7.97046 20042 ft 396 kts 36°
2026-04-30 12:59 53.05259 -7.94807 20112 ft 397 kts 33°
2026-04-30 12:59 53.07734 -7.92606 20094 ft 407 kts 33°
2026-04-30 12:59 53.10224 -7.90414 20097 ft 410 kts 33°
2026-04-30 13:00 53.12755 -7.88187 20112 ft 411 kts 33°
2026-04-30 13:00 53.15284 -7.85957 20112 ft 411 kts 33°
2026-04-30 13:00 53.17804 -7.83729 20112 ft 411 kts 33°
2026-04-30 13:00 53.20332 -7.81488 20112 ft 411 kts 33°
2026-04-30 13:01 53.22858 -7.79247 20109 ft 411 kts 33°
2026-04-30 13:01 53.25380 -7.77004 20098 ft 411 kts 33°
2026-04-30 13:01 53.27905 -7.74756 20100 ft 411 kts 33°
2026-04-30 13:01 53.30431 -7.72503 20118 ft 411 kts 33°
2026-04-30 13:02 53.32918 -7.70281 20102 ft 411 kts 33°
2026-04-30 13:02 53.34627 -7.68753 20107 ft 412 kts 33°
2026-04-30 13:04 53.52848 -7.52375 20111 ft 414 kts 33°
2026-04-30 13:04 53.55381 -7.50086 20111 ft 414 kts 33°
2026-04-30 13:04 53.56873 -7.48736 20112 ft 414 kts 33°
2026-04-30 13:04 53.59221 -7.46608 20115 ft 414 kts 33°
2026-04-30 13:05 53.61753 -7.44312 20121 ft 414 kts 33°
2026-04-30 13:05 53.64285 -7.42012 20121 ft 414 kts 33°
2026-04-30 13:05 53.66820 -7.39707 20121 ft 413 kts 33°
2026-04-30 13:06 53.71883 -7.35092 20122 ft 413 kts 33°
2026-04-30 13:06 53.74404 -7.32764 20126 ft 412 kts 36°
2026-04-30 13:06 53.76634 -7.29849 19897 ft 400 kts 53°
2026-04-30 13:06 53.78147 -7.26032 19202 ft 385 kts 74°
2026-04-30 13:07 53.78749 -7.21747 18638 ft 369 kts 90°
2026-04-30 13:07 53.78933 -7.17453 18075 ft 363 kts 93°
2026-04-30 13:07 53.79081 -7.13212 17445 ft 360 kts 92°
2026-04-30 13:07 53.79250 -7.09058 16838 ft 357 kts 92°
2026-04-30 13:08 53.79446 -7.04832 16225 ft 355 kts 91°
2026-04-30 13:08 53.79649 -7.00743 15643 ft 352 kts 91°
2026-04-30 13:08 53.79859 -6.96635 15060 ft 349 kts 91°
2026-04-30 13:08 53.80072 -6.92561 14516 ft 346 kts 91°
2026-04-30 13:09 53.80285 -6.88524 14223 ft 344 kts 91°
2026-04-30 13:09 53.80495 -6.84487 14155 ft 345 kts 91°
2026-04-30 13:09 53.80706 -6.80436 14154 ft 345 kts 91°
2026-04-30 13:09 53.80918 -6.76462 14150 ft 328 kts 91°
2026-04-30 13:10 53.81119 -6.72727 14162 ft 308 kts 92°
2026-04-30 13:10 53.81305 -6.69220 14172 ft 290 kts 92°
2026-04-30 13:10 53.81441 -6.65918 14165 ft 271 kts 98°
2026-04-30 13:10 53.81073 -6.62989 14163 ft 243 kts 122°
2026-04-30 13:11 53.80043 -6.60867 14168 ft 231 kts 146°
2026-04-30 13:11 53.78608 -6.59758 14163 ft 232 kts 165°
2026-04-30 13:11 53.76994 -6.59481 14160 ft 235 kts 175°
2026-04-30 13:11 53.75354 -6.59481 14161 ft 236 kts 177°
2026-04-30 13:12 53.73709 -6.59499 14159 ft 236 kts 176°
2026-04-30 13:12 53.72062 -6.59495 14158 ft 236 kts 176°
2026-04-30 13:12 53.70421 -6.59473 14160 ft 236 kts 176°
2026-04-30 13:13 53.67236 -6.60902 14157 ft 250 kts 210°
2026-04-30 13:13 53.66074 -6.63175 14152 ft 266 kts 234°
2026-04-30 13:13 53.66172 -6.69582 14150 ft 302 kts 297°
2026-04-30 13:14 53.67653 -6.72054 14145 ft 309 kts 330°
2026-04-30 13:14 53.69700 -6.73056 14152 ft 308 kts 358°
2026-04-30 13:14 53.73999 -6.73330 14143 ft 310 kts
2026-04-30 13:15 53.76156 -6.73482 14153 ft 310 kts
2026-04-30 13:15 53.80045 -6.71585 14149 ft 282 kts 54°
2026-04-30 13:15 53.81010 -6.68876 14160 ft 262 kts 82°
2026-04-30 13:16 53.81158 -6.65918 14162 ft 247 kts 105°
2026-04-30 13:16 53.80635 -6.63265 14157 ft 238 kts 126°
2026-04-30 13:16 53.79560 -6.61215 14160 ft 232 kts 146°
2026-04-30 13:17 53.76492 -6.59747 14158 ft 235 kts 174°
2026-04-30 13:17 53.74857 -6.59666 14156 ft 236 kts 175°
2026-04-30 13:17 53.71571 -6.59545 14158 ft 236 kts 175°
2026-04-30 13:18 53.69930 -6.59495 14160 ft 237 kts 178°
2026-04-30 13:18 53.66830 -6.61477 14155 ft 255 kts 217°
2026-04-30 13:18 53.65847 -6.64051 14152 ft 272 kts 243°
2026-04-30 13:19 53.65681 -6.67316 14137 ft 291 kts 274°
2026-04-30 13:19 53.66519 -6.70433 14147 ft 305 kts 307°
2026-04-30 13:19 53.68240 -6.72534 14146 ft 309 kts 341°
2026-04-30 13:19 53.70345 -6.73141 14149 ft 307 kts
2026-04-30 13:20 53.72489 -6.73252 14142 ft 309 kts
2026-04-30 13:20 53.74641 -6.73374 14147 ft 310 kts
2026-04-30 13:20 53.76798 -6.73515 14146 ft 309 kts
2026-04-30 13:20 53.78876 -6.72906 14145 ft 297 kts 31°
2026-04-30 13:21 53.80424 -6.70851 14148 ft 275 kts 63°
2026-04-30 13:21 53.81135 -6.67998 14165 ft 257 kts 90°
2026-04-30 13:21 53.81073 -6.65114 14154 ft 244 kts 111°
2026-04-30 13:22 53.79159 -6.60770 14162 ft 232 kts 152°
2026-04-30 13:22 53.77636 -6.59915 14162 ft 233 kts 169°
2026-04-30 13:22 53.74369 -6.59649 14153 ft 236 kts 175°
2026-04-30 13:23 53.72728 -6.59593 14157 ft 236 kts 175°
2026-04-30 13:23 53.69432 -6.59544 14153 ft 238 kts 181°
2026-04-30 13:24 53.66483 -6.62121 14151 ft 260 kts 224°
2026-04-30 13:24 53.65812 -6.68267 14136 ft 296 kts 283°
2026-04-30 13:25 53.68841 -6.72843 14149 ft 308 kts 350°
2026-04-30 13:25 53.73126 -6.73281 14142 ft 309 kts
2026-04-30 13:26 53.79412 -6.72437 14143 ft 291 kts 40°
2026-04-30 13:26 53.81189 -6.67150 14160 ft 253 kts 96°
2026-04-30 13:27 53.80056 -6.61954 14156 ft 234 kts 137°
2026-04-30 13:28 53.75526 -6.59690 14154 ft 235 kts 175°
2026-04-30 13:28 53.72238 -6.59573 14153 ft 236 kts 175°
2026-04-30 13:28 53.70596 -6.59502 14152 ft 236 kts 175°
2026-04-30 13:29 53.67336 -6.60295 14019 ft 241 kts 196°
2026-04-30 13:29 53.64836 -6.64364 13128 ft 270 kts 234°
2026-04-30 13:30 53.62483 -6.72976 12121 ft 268 kts 238°
2026-04-30 13:31 53.60949 -6.78672 11255 ft 267 kts 229°
2026-04-30 13:31 53.56383 -6.81834 9723 ft 227 kts 160°
2026-04-30 13:32 53.53854 -6.79122 9115 ft 220 kts 143°
2026-04-30 13:32 53.51813 -6.76426 8431 ft 226 kts 143°
2026-04-30 13:33 53.49355 -6.73175 7822 ft 223 kts 143°
2026-04-30 13:33 53.46948 -6.69917 6984 ft 221 kts 137°
2026-04-30 13:34 53.46075 -6.67818 6492 ft 221 kts 115°
2026-04-30 13:34 53.45503 -6.60511 5721 ft 192 kts 100°
2026-04-30 13:35 53.45399 -6.58323 5398 ft 186 kts 101°
2026-04-30 13:35 53.45144 -6.53787 3848 ft 209 kts 102°
2026-04-30 13:36 53.44865 -6.48839 2430 ft 208 kts 100°
2026-04-30 13:36 53.44741 -6.46517 2234 ft 190 kts 100°
2026-04-30 13:36 53.44528 -6.42639 1964 ft 147 kts 101°
2026-04-30 13:37 53.44435 -6.41003 1782 ft 138 kts 100°
2026-04-30 13:37 53.44270 -6.38028 1425 ft 122 kts 100°
2026-04-30 13:38 53.44112 -6.35200 1092 ft 122 kts 98°
2026-04-30 13:38 53.44035 -6.33785 935 ft 121 kts 98°
2026-04-30 13:38 53.43879 -6.30983 599 ft 119 kts 95°
2026-04-30 13:39 53.43728 -6.28237 286 ft 116 kts 95°
2026-04-30 13:39 53.43612 -6.26151 220 ft 51 kts 95°
2026-04-30 13:40 53.43581 -6.25612 220 ft 41 kts 96°
2026-04-30 13:40 53.43540 -6.25276 222 ft 25 kts 112°
2026-04-30 13:40 53.43479 -6.25085 224 ft 13 kts 120°
2026-04-30 13:40 53.43433 -6.24998 224 ft 9 kts 162°
2026-04-30 13:41 53.43386 -6.25046 220 ft 9 kts 248°
2026-04-30 13:41 53.43385 -6.25169 221 ft 12 kts 275°
2026-04-30 13:41 53.43395 -6.25332 216 ft 16 kts 275°
2026-04-30 13:41 53.43406 -6.25528 214 ft 16 kts 275°
2026-04-30 13:42 53.43380 -6.25643 223 ft 10 kts 205°
2026-04-30 13:42 53.43303 -6.25615 219 ft 13 kts 155°
2026-04-30 13:42 53.43108 -6.25471 225 ft 18 kts 157°
2026-04-30 13:43 53.43014 -6.25403 221 ft 7 kts 156°
2026-04-30 13:43 53.42960 -6.25364 222 ft 10 kts 156°
2026-04-30 13:43 53.42887 -6.25310 223 ft 13 kts 157°
2026-04-30 13:43 53.42794 -6.25243 225 ft 16 kts 156°
2026-04-30 13:44 53.42713 -6.25143 223 ft 15 kts 129°
2026-04-30 13:44 53.42625 -6.25052 221 ft 16 kts 156°
2026-04-30 13:44 53.42515 -6.24973 220 ft 15 kts 156°
2026-04-30 13:44 53.42467 -6.24938 222 ft 7 kts 156°
2026-04-30 13:45 53.42361 -6.24861 225 ft 11 kts 156°
2026-04-30 13:45 53.42284 -6.24805 225 ft 14 kts 156°
2026-04-30 13:45 53.42199 -6.24733 223 ft 13 kts 137°
2026-04-30 13:46 53.42173 -6.24585 220 ft 14 kts 96°
2026-04-30 13:46 53.42162 -6.24408 222 ft 16 kts 95°
2026-04-30 13:46 53.42167 -6.24255 225 ft 11 kts 67°
2026-04-30 13:46 53.42216 -6.24166 223 ft 11 kts 39°
2026-04-30 13:47 53.42286 -6.24113 220 ft 9 kts 19°
2026-04-30 13:47 53.42346 -6.24046 224 ft 9 kts 43°
2026-04-30 13:47 53.42379 -6.24000 224 ft 3 kts 28°
2026-04-30 13:47 53.42386 -6.24004 224 ft 1 kts 346°
2026-04-30 13:48 53.42395 -6.24013 223 ft 1 kts 322°
2026-04-30 13:48 53.42407 -6.24033 224 ft 4 kts 316°
2026-04-30 13:48 53.42421 -6.24055 222 ft 1 kts 316°
2026-04-30 13:48 53.42423 -6.24058 223 ft 0 kts 316°
2026-04-30 13:49 53.42424 -6.24059 223 ft 0 kts 315°